Tracking 35275 objects as of 9-Sep-2026
HD Live streaming from Space Station
objects crossing your sky now

STARLINK-33932

Track STARLINK-33932 now!
10-day predictions
STARLINK-33932 is classified as:


NORAD ID: 63775
Int'l Code: 2025-091A
Launch date: May 2, 2025
Source: United States (US)
Launch site: AIR FORCE EASTERN TEST RANGE (AFETR)
Your satellite tracking list
Your tracking list is empty




NASA's NSSDC Master Catalog

Two Line Element Set (TLE):
1 63775U 25091A   26250.00423530  .00013359  00000-0  49395-3 0  9991
2 63775  43.0032 108.4095 0001600 271.5461  88.5207 15.27588780 76679
Source of the keplerian elements: AFSPC